GFSNW_925_rhum_003.txt.gz
RH
100 97 89 88 94 100 100 85 91 96 98 98 94 96 93 79 80 80 54 32 32 32 33 43 46 39 34 27 37 94 78 93 99 93 47 47 59 60 41 43 50 37 36 33
95 100 88 92 98 99 89 87 66 100 89 98 96 81 92 85 84 70 50 38 33 29 35 44 43 39 28 35 39 70 57 78 98 94 62 52 61 44 40 38 35 39 37 33
92 100 90 94 100 100 70 71 96 100 98 84 89 94 94 95 72 69 44 38 38 42 41 35 45 46 33 39 36 62 50 54 47 50 44 53 65 55 40 38 44 37 35 30
98 100 92 94 98 100 89 76 82 69 95 95 92 92 88 95 90 68 45 61 48 49 45 43 55 42 43 40 49 48 59 54 40 34 34 41 44 49 51 51 44 42 32 32
96 100 91 93 97 100 97 80 57 69 81 72 83 93 92 95 85 68 76 89 48 47 43 36 46 40 42 60 51 56 55 59 42 45 41 36 41 40 43 44 42 39 32 32
99 99 99 94 96 100 97 86 68 61 54 61 76 83 86 86 81 83 58 74 68 50 42 34 35 32 40 46 50 64 68 66 46 50 43 44 51 38 38 39 36 35 41 32
100 98 100 94 96 99 89 76 70 65 57 40 49 59 88 90 87 84 76 80 86 53 36 36 38 42 52 48 51 46 63 59 47 59 44 66 36 34 30 34 33 31 31 27
98 95 100 93 94 97 100 80 79 63 61 43 43 70 88 91 89 90 82 78 58 45 43 53 74 81 83 67 61 57 53 57 65 70 71 53 37 36 36 37 37 28 28 27
100 96 100 96 92 94 100 98 88 73 65 42 45 65 91 93 87 86 78 62 49 43 54 65 92 100 96 91 85 77 65 63 74 72 58 62 36 39 32 30 39 29 29 30
98 98 98 96 90 90 100 99 98 77 69 47 48 57 79 95 77 72 64 60 59 72 65 72 74 74 64 92 96 96 96 91 95 95 87 51 35 38 36 40 44 37 31 33
97 98 94 99 89 91 100 98 95 73 67 59 61 55 75 98 94 59 67 65 68 89 80 68 64 54 50 55 61 78 83 88 93 96 98 83 38 45 44 49 43 37 36 37
97 96 94 100 92 92 100 100 97 93 81 75 79 72 76 87 85 73 56 71 64 83 90 62 57 60 42 41 58 43 64 45 45 47 54 48 42 48 45 42 42 41 42 42
97 90 95 100 93 92 99 99 99 97 89 79 75 73 81 85 88 84 81 79 62 83 77 69 63 55 45 47 42 42 42 43 41 42 48 47 45 46 43 39 41 41 41 41
98 97 98 100 95 95 100 97 90 93 71 78 77 78 76 81 83 88 84 78 61 71 89 87 70 61 56 56 47 42 43 45 47 51 55 52 49 45 44 45 44 45 44 43
98 96 98 99 96 96 100 99 94 88 87 84 75 72 81 77 69 67 65 54 52 56 73 80 76 63 64 59 52 49 47 41 47 45 41 38 45 44 45 49 50 49 52 56
98 97 99 99 96 100 100 100 96 93 84 86 87 72 72 73 66 61 63 62 61 60 64 72 68 64 60 71 60 41 38 38 38 36 38 37 41 44 44 48 51 48 48 50
98 96 100 98 99 100 98 93 98 92 85 84 99 87 76 73 69 71 68 64 75 67 73 74 68 64 63 60 58 43 40 42 44 44 43 50 48 53 46 50 53 51 49 49
99 100 100 99 100 100 96 94 99 99 90 88 100 100 91 75 82 84 74 76 72 80 77 74 67 68 64 72 52 44 46 46 47 46 48 46 46 50 56 58 58 56 49 49
94 100 100 100 99 92 94 95 100 91 90 98 98 100 100 80 91 87 80 79 85 82 78 74 72 70 89 66 54 52 52 52 55 63 63 64 68 79 80 70 54 45 48 49
95 99 100 100 97 85 85 92 93 100 98 90 84 73 99 88 90 96 86 87 93 100 89 82 87 81 62 58 51 48 53 55 72 85 96 96 93 88 63 43 40 41 47 52
100 99 100 100 88 72 86 100 97 95 100 91 84 74 96 81 93 93 88 98 99 100 89 88 86 80 70 63 59 58 59 63 58 53 59 57 56 48 41 47 48 50 56 57
93 95 98 89 88 93 97 98 96 98 95 92 87 87 71 83 80 90 87 98 94 98 78 90 88 66 65 63 63 60 56 53 54 51 47 43 36 36 41 46 50 53 58 69
100 100 100 92 99 100 97 97 94 94 100 100 97 98 79 80 84 91 85 99 90 77 90 86 74 77 74 65 62 60 55 51 44 37 38 43 47 50 48 48 53 60 64 72
100 100 100 100 100 90 89 79 94 86 98 98 90 91 85 75 94 79 98 80 78 90 91 79 58 68 68 66 66 62 52 45 44 48 49 54 54 52 51 52 56 58 59 68
100 100 100 99 93 98 96 99 98 97 90 87 94 93 76 90 94 73 87 95 90 76 73 69 79 74 72 71 64 50 46 43 45 45 49 47 47 48 52 54 54 58 59 59
100 100 100 93 98 99 97 99 100 92 82 88 92 98 98 95 89 90 88 83 83 80 92 79 72 63 65 69 58 46 46 44 45 44 45 48 49 51 58 62 60 56 53 52
100 100 78 87 96 94 88 88 90 74 79 97 96 96 96 82 89 83 72 82 86 92 80 70 66 69 68 66 54 50 46 42 42 45 48 51 59 64 62 62 63 55 52 50

GFSNW_925_rhum_009.txt.gz
RH
99 96 98 94 97 98 100 97 98 100 100 98 97 97 76 65 76 70 84 92 81 79 67 76 68 59 44 54 51 71 89 100 99 84 75 65 71 81 60 72 84 97 58 49
99 96 92 99 99 97 96 95 98 100 89 98 98 83 81 72 79 82 89 92 68 60 60 83 59 54 47 55 65 89 93 100 97 100 96 90 80 76 74 62 94 93 62 52
97 96 98 84 96 98 84 98 98 99 99 90 89 88 87 94 83 89 84 84 72 65 57 53 54 46 47 50 54 72 90 100 100 99 87 79 91 74 75 93 97 56 56 50
94 96 96 98 98 99 74 95 93 83 97 97 92 83 87 96 97 89 83 86 81 68 55 46 53 53 47 58 72 85 87 100 100 91 80 71 76 83 92 100 66 45 46 45
87 99 94 98 99 99 88 97 93 84 88 79 95 92 95 92 94 92 87 88 62 59 73 48 49 49 51 53 74 81 86 99 95 80 80 75 82 84 71 58 49 50 52 46
86 96 98 98 93 100 98 96 85 77 82 83 93 88 85 83 82 85 79 79 86 75 65 57 41 48 40 41 61 68 83 90 83 71 61 70 72 62 62 57 50 50 58 43
85 90 96 97 94 100 100 87 92 90 92 81 82 78 81 86 86 84 83 85 87 67 67 67 56 62 59 56 65 64 80 78 74 77 60 73 45 38 49 55 50 49 43 39
87 91 95 97 98 99 95 86 90 94 95 78 81 71 64 80 82 93 90 80 71 74 75 84 89 92 80 75 73 73 65 76 82 85 84 59 44 41 42 48 50 42 46 51
85 89 94 92 98 99 100 86 87 94 93 89 73 78 80 89 89 96 90 87 81 82 84 85 100 98 98 97 83 80 71 77 84 95 82 75 45 41 37 37 57 46 41 54
83 90 95 90 95 95 100 97 88 93 96 78 76 80 86 84 95 98 96 92 89 82 93 97 96 94 83 94 94 96 94 93 89 89 94 76 48 40 38 49 51 46 45 53
82 91 93 96 96 92 100 99 95 91 94 79 62 63 92 99 96 96 93 94 94 98 97 96 89 89 92 95 82 88 81 96 97 90 94 88 46 42 37 49 45 57 65 65
80 88 91 95 88 97 100 99 100 99 94 90 81 68 64 71 88 97 96 97 87 86 91 90 84 77 80 88 97 75 91 78 82 80 74 56 53 50 50 50 54 61 64 63
78 88 87 94 93 95 100 98 99 99 98 91 93 88 86 80 92 87 97 97 90 88 80 79 79 75 69 84 87 82 69 67 67 68 57 56 56 50 48 52 62 62 60 60
79 89 89 95 93 93 100 97 97 88 94 98 93 82 88 82 94 99 98 99 93 87 92 88 88 89 73 77 61 76 68 72 67 68 62 58 55 51 61 62 61 62 63 61
80 90 92 95 98 96 100 98 95 85 98 98 94 80 83 87 97 100 100 95 97 95 94 92 89 85 80 77 68 64 58 61 68 69 59 54 58 61 58 60 65 64 65 72
89 92 90 94 99 95 100 99 97 94 92 99 100 82 80 86 97 96 95 95 96 91 91 94 93 84 84 87 77 54 52 50 48 48 53 56 60 61 58 65 68 67 68 67
88 90 93 95 99 99 100 90 86 91 97 99 99 97 82 77 90 98 98 93 90 91 89 90 88 84 84 87 90 58 54 55 59 56 56 66 59 68 64 66 67 64 66 66
92 89 92 98 93 98 100 87 96 99 93 96 100 100 96 76 95 97 94 94 92 89 92 87 89 83 84 90 73 58 62 64 64 61 58 61 64 64 66 63 63 68 70 70
90 93 97 97 99 100 99 95 100 91 87 99 99 100 100 85 93 91 90 92 99 92 95 92 89 90 93 74 71 67 63 62 78 80 72 68 71 74 72 68 64 67 72 74
84 99 99 99 99 96 92 99 99 99 100 97 97 92 98 90 92 97 92 96 98 100 94 90 96 96 78 74 72 62 72 78 76 83 93 86 83 77 67 59 60 63 70 79
98 98 99 99 98 87 95 100 100 100 100 98 93 91 97 85 92 94 93 100 100 94 94 92 98 98 84 77 72 78 81 74 71 72 73 69 66 62 61 68 69 72 77 85
98 100 100 100 99 100 100 99 100 100 97 99 97 96 86 90 83 94 93 95 97 94 91 95 96 86 74 78 81 89 84 80 81 75 76 66 56 57 64 70 77 83 84 84
100 100 100 100 100 100 99 98 99 99 100 100 98 97 86 85 85 94 92 95 98 87 87 90 88 88 77 82 87 88 82 77 74 66 59 60 64 62 66 79 81 83 83 79
100 100 99 99 99 96 92 94 92 86 100 99 92 95 91 88 91 91 89 96 88 94 96 90 88 87 85 86 84 73 67 58 56 57 57 61 66 72 72 76 78 80 82 78
99 100 99 98 98 99 99 98 97 100 91 82 91 94 84 98 91 90 90 96 98 92 87 87 95 92 90 80 61 60 60 55 55 54 58 63 66 70 75 73 72 71 67 63
99 99 99 98 98 99 98 100 100 99 82 94 92 97 92 93 93 96 94 93 93 80 91 96 96 91 83 68 61 58 52 51 54 56 59 62 64 67 69 65 64 62 59 58
100 99 100 100 99 97 96 92 90 82 79 90 94 83 78 94 100 98 92 88 84 98 98 98 91 89 76 65 64 59 53 53 57 61 66 70 68 62 60 63 60 56 55 53

GFSNW_925_rhum_012.txt.gz
RH
70 90 99 94 93 97 88 97 100 100 100 98 97 100 80 64 72 76 78 78 94 87 77 94 86 82 56 60 56 80 67 98 96 81 63 73 63 67 62 74 69 71 98 75
70 88 99 96 100 86 99 96 98 100 90 98 97 85 74 72 77 77 83 91 86 75 74 79 74 63 46 57 57 76 93 100 96 91 90 72 95 67 69 77 66 81 98 81
67 86 94 96 98 98 98 96 99 98 97 94 93 87 84 85 78 72 82 86 83 83 84 63 60 63 48 52 57 77 89 100 98 85 98 80 97 78 65 75 84 72 78 71
69 85 91 97 94 100 89 97 94 82 98 98 85 79 80 84 89 87 86 94 92 83 78 64 72 54 49 59 74 87 94 100 100 95 86 95 92 78 86 96 71 77 59 70
66 86 92 97 99 99 99 97 96 83 82 81 91 85 91 85 88 90 93 96 79 83 90 59 52 50 56 73 81 88 94 99 100 96 92 93 79 78 70 78 84 93 88 89
70 86 90 99 92 99 97 94 82 73 84 81 92 94 84 82 81 82 79 84 84 93 79 64 63 52 48 58 79 87 97 100 100 100 84 92 96 82 84 95 89 89 98 62
67 82 90 99 92 99 100 97 88 90 95 86 85 87 87 86 82 81 83 83 91 67 72 67 63 62 66 54 62 60 85 89 83 99 96 78 46 62 75 86 82 80 46 44
62 80 90 99 98 95 100 99 90 90 93 78 78 79 81 79 81 83 79 84 72 70 75 87 86 89 84 75 71 72 73 76 92 91 90 62 45 44 62 74 62 48 51 58
63 78 89 98 92 92 100 99 88 90 92 89 69 79 82 86 86 92 88 89 81 86 92 94 92 99 83 89 82 78 81 75 86 95 86 75 48 41 39 39 61 44 53 58
64 75 88 96 93 92 100 98 88 87 94 80 76 82 84 84 92 94 94 93 99 88 90 87 97 93 80 95 79 92 93 91 92 92 94 80 56 42 41 54 52 46 49 52
69 73 87 93 92 95 99 98 94 86 91 78 64 69 92 96 89 94 90 99 98 98 97 94 94 85 93 91 81 88 88 95 87 87 93 86 48 39 37 45 54 62 66 72
74 73 83 91 91 98 98 100 98 92 94 91 82 67 63 68 72 88 98 95 92 89 91 93 84 87 94 88 94 75 87 76 87 87 81 61 54 48 53 52 62 65 72 73
75 72 80 89 94 97 100 100 100 99 97 89 93 86 75 75 72 76 95 96 90 93 84 86 88 80 78 93 87 88 75 68 78 66 61 56 53 52 54 54 64 68 68 68
75 76 86 91 90 92 98 100 98 93 92 98 90 85 85 83 85 90 95 99 96 98 97 90 85 86 74 77 68 84 80 75 71 70 60 57 56 53 64 70 68 70 69 64
75 82 88 91 92 96 98 100 98 87 98 99 95 81 85 92 98 99 99 98 98 99 100 99 89 89 81 84 76 73 67 78 75 72 59 57 58 64 65 66 70 69 68 74
80 86 91 94 92 91 99 100 97 92 91 99 100 86 86 98 100 97 97 96 97 98 99 94 94 84 84 90 87 58 55 54 57 54 57 64 68 68 62 70 70 68 70 70
86 88 92 88 91 98 98 97 100 96 92 99 99 98 84 90 93 97 98 98 98 98 96 95 88 88 88 89 91 61 58 52 61 64 61 69 61 70 68 69 70 70 72 73
85 87 88 90 94 99 99 84 99 100 94 98 100 100 96 80 97 98 96 97 97 93 93 89 90 83 85 92 76 63 66 68 65 68 62 64 71 70 72 69 68 74 76 76
84 86 99 99 100 99 96 87 100 94 87 99 100 100 100 87 95 93 94 96 98 93 95 95 92 90 93 74 69 68 69 62 84 84 76 72 74 77 75 72 70 73 76 75
79 100 99 100 93 100 97 100 99 99 100 97 98 94 98 92 94 98 92 97 99 100 96 92 96 97 80 75 73 66 71 82 75 82 91 86 84 79 74 65 64 67 74 82
97 100 100 97 92 100 98 100 100 99 100 99 94 92 97 88 92 94 93 99 100 94 94 94 96 98 87 78 79 75 80 74 69 71 73 68 66 65 67 72 73 76 77 78
98 99 99 100 99 100 99 100 100 100 97 99 98 97 91 93 84 91 92 96 97 88 91 96 98 87 76 80 82 85 83 79 80 73 72 66 60 60 67 72 78 82 87 89
99 98 99 100 100 99 99 99 100 99 100 100 99 97 86 85 86 95 92 95 94 88 94 95 89 86 80 88 93 93 88 84 76 67 63 65 69 66 68 82 85 87 91 88
100 99 98 99 99 98 92 93 94 90 100 99 91 95 91 85 90 90 92 96 88 97 100 89 88 82 83 90 90 84 86 72 68 68 66 67 69 76 80 82 84 87 91 86
99 100 98 99 100 99 98 100 98 100 96 87 90 93 82 94 92 88 91 97 97 92 85 84 92 90 93 88 77 72 70 67 65 61 61 67 71 76 86 83 80 81 80 77
99 99 99 99 100 99 99 100 99 100 86 91 92 90 87 91 91 97 92 93 93 80 91 94 98 93 81 76 72 68 61 57 56 59 63 68 71 77 81 74 70 67 64 61
99 99 100 100 99 99 97 90 90 88 86 89 93 83 78 93 100 93 91 86 82 92 98 98 93 88 78 71 69 63 58 58 60 62 66 70 72 70 68 70 66 59 57 54

GFSNW_925_rhum_015.txt.gz
RH
65 68 84 89 96 96 98 94 100 100 99 97 97 95 83 66 88 76 82 79 68 80 82 90 91 94 72 70 74 91 74 90 97 76 66 56 63 69 73 94 84 68 84 71
68 68 83 91 96 98 99 94 95 100 84 98 98 91 79 74 78 77 73 81 73 74 81 87 87 74 54 65 66 81 78 99 96 97 88 86 100 86 68 66 80 80 72 49
65 68 83 92 95 98 100 94 100 98 97 91 86 85 87 84 71 71 68 84 74 85 88 74 71 73 51 56 58 73 84 100 98 89 95 96 96 83 76 67 79 71 68 50
60 68 84 91 98 96 100 96 97 91 98 98 78 76 76 82 90 81 76 86 94 92 83 88 82 65 58 59 60 77 92 99 100 95 92 97 99 76 77 77 64 70 51 60
59 65 83 93 97 86 99 98 96 86 82 85 80 80 85 83 81 90 96 97 87 86 95 72 64 56 58 70 84 83 95 99 100 95 81 94 100 95 77 69 65 64 68 72
63 64 77 90 95 92 97 88 94 76 82 82 90 91 87 80 77 79 76 82 93 90 81 70 71 71 63 60 80 96 100 100 100 99 96 96 100 90 84 69 64 70 94 68
66 64 76 88 98 98 100 97 99 95 91 79 77 82 75 82 81 84 82 79 89 68 73 69 76 78 75 65 72 73 97 100 100 100 100 98 78 82 64 70 77 78 83 80
67 67 74 87 97 99 100 100 100 95 90 75 77 78 83 84 83 84 82 80 74 74 79 87 86 86 79 80 77 79 74 79 97 99 94 68 74 94 91 95 90 81 84 76
70 70 74 85 95 98 100 100 96 99 91 86 70 77 83 93 92 91 86 85 89 90 94 89 95 92 75 88 84 80 87 84 87 93 98 78 50 64 66 75 80 69 77 75
68 73 73 83 93 98 100 98 100 94 89 81 73 83 88 79 88 91 89 88 98 93 93 96 97 93 79 91 81 72 90 89 93 76 92 81 57 46 49 81 57 52 61 59
73 75 74 82 92 96 100 96 95 99 90 79 68 70 91 92 88 92 90 97 99 99 99 94 92 83 89 88 78 89 88 92 91 80 94 77 53 42 46 48 62 61 62 71
79 77 72 83 92 97 96 98 100 98 90 88 84 68 63 65 69 82 94 88 94 91 94 92 85 93 95 90 90 81 88 82 87 78 79 61 56 54 54 56 64 65 73 80
80 76 73 86 89 95 99 98 99 94 94 89 91 84 76 71 67 67 90 96 90 98 92 88 89 81 88 96 92 83 78 74 79 76 62 64 54 54 58 63 69 78 78 76
80 75 80 87 92 93 97 99 96 100 92 98 87 84 84 83 81 81 82 96 97 99 99 94 89 86 74 81 78 84 82 77 77 76 66 61 57 55 68 75 73 74 73 70
79 78 86 89 93 91 81 87 95 100 100 99 94 83 89 94 92 95 98 98 96 97 100 100 94 90 83 87 80 86 80 79 80 80 63 58 59 65 70 73 75 71 69 70
78 85 88 89 90 91 90 99 91 98 96 99 98 87 89 100 100 97 98 97 97 99 99 96 94 82 83 90 87 63 61 62 62 59 59 69 73 71 66 75 73 71 72 66
80 81 82 85 89 91 96 96 99 98 100 99 100 98 86 94 93 97 98 98 98 99 99 99 94 91 88 91 91 64 60 56 61 68 65 70 64 72 74 74 76 74 79 77
70 73 78 87 95 94 96 70 71 89 99 99 100 100 96 86 98 98 96 98 99 99 98 95 96 86 87 95 80 66 65 70 70 70 67 65 75 75 77 73 72 79 82 82
80 89 99 98 99 99 93 93 99 99 93 99 100 100 99 89 96 94 98 98 99 96 97 96 95 91 94 79 73 75 72 66 82 86 82 75 78 81 81 79 78 79 82 82
84 90 98 100 100 95 100 100 100 100 100 97 99 90 97 96 95 98 94 96 99 100 96 94 98 98 79 76 70 67 73 81 77 83 92 88 87 83 79 70 69 69 74 80
95 98 99 95 84 99 99 100 100 100 100 99 96 91 97 90 94 94 94 99 99 96 90 95 97 98 89 80 82 78 82 76 72 69 74 68 69 72 73 76 76 75 71 69
98 99 100 99 99 99 100 99 100 99 96 99 98 97 90 93 87 91 93 97 97 91 92 98 99 90 80 82 80 84 84 79 76 71 72 71 66 65 69 75 80 83 82 76
95 99 99 100 100 99 99 98 100 100 100 100 99 98 87 88 88 94 92 88 92 88 97 97 93 87 81 87 93 93 86 80 75 72 68 67 70 67 69 83 87 84 82 79
97 99 97 99 99 99 99 95 95 94 98 100 93 95 91 84 91 92 97 95 87 98 100 90 91 77 79 90 92 90 88 76 74 73 70 70 72 80 80 86 86 84 87 79
100 99 97 99 100 100 99 99 99 96 100 91 91 93 81 96 91 90 93 97 98 95 86 88 89 87 95 94 89 88 82 76 73 70 71 77 76 81 90 92 87 86 83 74
100 99 98 100 99 99 100 99 96 99 97 94 92 89 90 90 91 97 95 93 94 80 92 93 98 94 88 86 82 80 72 68 67 70 71 73 76 83 88 85 83 80 72 67
99 99 100 100 98 99 100 94 88 87 97 96 94 87 78 93 98 95 89 87 83 91 96 99 94 92 86 82 78 73 66 67 69 69 72 78 79 77 75 76 73 68 64 60

GFSNW_925_rhum_018.txt.gz
RH
75 64 68 86 90 98 87 94 93 90 99 100 94 92 75 68 90 76 80 74 67 73 80 91 87 88 77 70 77 87 72 97 96 80 66 60 61 71 73 81 84 87 86 55
78 60 71 84 92 98 97 97 94 100 84 100 100 84 80 73 87 85 80 84 74 68 82 87 85 81 63 72 78 85 74 98 97 92 85 70 99 82 67 66 80 79 80 59
80 63 68 82 95 98 100 99 99 99 97 94 83 77 77 85 70 74 69 78 71 83 87 75 78 82 61 70 71 67 68 98 94 92 84 97 100 98 100 97 95 73 72 58
77 65 68 81 96 91 100 96 98 92 100 99 74 70 80 82 96 75 76 85 82 92 100 88 94 78 67 65 62 78 86 99 98 96 93 98 99 96 97 98 83 81 56 54
70 69 67 80 95 89 97 98 98 95 93 86 74 80 90 81 79 83 84 88 77 88 98 79 70 78 68 65 76 82 87 97 100 96 83 98 98 98 94 91 78 74 63 58
71 67 68 74 96 92 92 87 94 78 86 87 83 80 82 82 75 78 71 80 89 95 87 79 74 71 71 74 75 84 98 100 100 87 96 100 99 88 92 82 76 68 83 63
74 70 71 76 93 98 100 95 98 93 98 86 78 76 71 86 76 78 81 76 91 73 73 73 72 80 78 79 78 68 95 100 100 98 100 98 83 80 74 78 70 62 56 65
79 69 71 79 89 95 100 100 99 98 91 75 71 82 87 77 81 88 85 74 71 70 77 89 84 91 86 84 86 79 76 85 100 100 97 82 69 91 83 82 80 63 60 60
80 73 75 78 87 93 99 99 99 99 92 83 61 69 84 95 96 96 89 92 85 80 94 94 96 82 79 86 83 85 89 89 97 99 98 89 57 81 79 77 95 70 75 78
80 79 78 75 88 91 99 98 100 100 95 80 72 79 86 80 84 88 89 89 94 91 96 100 100 97 82 91 91 93 96 96 94 88 84 84 61 63 76 87 59 59 72 72
80 80 78 74 88 91 98 95 100 100 96 82 68 68 86 88 86 92 88 93 97 99 99 97 95 97 92 92 79 84 84 85 97 84 94 75 55 54 61 54 59 64 66 69
82 79 76 74 88 91 95 95 86 100 100 89 82 70 64 66 68 88 91 86 86 90 97 90 87 95 94 90 90 85 94 82 83 80 77 59 59 58 56 61 65 65 69 80
82 80 75 79 89 91 95 97 96 99 98 90 88 83 76 67 64 64 88 94 85 94 96 96 92 91 91 97 95 82 80 79 83 75 63 68 62 55 62 69 72 78 80 79
83 78 77 85 88 92 93 93 87 99 97 97 86 84 83 82 79 76 76 90 96 98 99 99 95 88 80 86 82 84 78 75 77 78 71 68 61 58 71 80 78 76 76 74
76 76 78 84 87 88 90 79 88 95 100 99 96 84 92 92 88 91 93 94 96 97 99 98 97 89 84 90 85 90 86 79 80 78 65 62 59 72 73 75 77 72 72 73
74 76 74 76 80 86 88 97 100 100 100 99 100 89 93 99 98 96 97 97 97 97 98 98 89 84 82 93 90 65 73 70 65 62 61 75 77 74 70 78 76 73 72 68
74 79 78 80 82 85 93 91 97 91 94 100 99 98 89 94 92 95 98 98 98 98 94 99 97 93 91 94 96 65 66 63 61 64 66 67 66 72 76 75 76 74 75 70
82 83 84 90 96 95 96 69 77 78 100 99 100 99 94 89 98 99 97 99 99 99 96 96 98 92 93 98 82 74 65 69 71 69 66 63 79 82 84 78 70 73 74 75
84 88 94 97 94 98 94 97 99 83 99 100 99 100 88 90 95 95 98 98 99 96 99 97 97 93 98 81 77 74 75 70 79 86 83 80 81 85 84 78 73 76 84 83
81 86 93 99 98 82 94 100 100 100 100 99 99 92 93 96 96 98 97 97 99 100 96 93 99 98 78 74 72 67 74 82 79 85 94 91 89 88 81 71 70 73 81 87
90 98 100 92 82 99 99 100 98 100 100 98 95 92 96 92 96 95 93 99 99 98 90 95 84 98 89 83 82 80 79 77 73 66 76 68 70 77 78 80 79 78 79 80
93 99 98 99 99 100 99 99 100 100 96 96 98 95 89 95 89 91 93 96 96 99 92 97 96 92 80 83 86 82 82 78 71 71 75 74 71 69 73 76 77 81 74 70
89 98 100 100 99 98 98 98 99 94 100 100 99 98 90 89 89 94 92 91 88 88 98 97 93 86 79 85 90 90 84 78 77 78 74 71 73 71 71 82 78 71 67 68
98 100 96 98 98 98 99 99 99 95 100 100 97 96 94 88 93 93 96 93 89 97 99 92 90 74 77 90 91 89 86 79 78 76 73 73 75 82 81 80 74 71 75 73
96 98 96 98 100 99 100 100 100 96 99 98 92 94 80 94 91 89 93 98 98 96 89 88 90 84 96 94 91 90 87 82 81 76 77 82 82 87 90 84 78 76 75 71
99 99 97 97 97 98 98 97 99 97 99 96 96 91 91 86 93 98 99 96 94 81 92 92 97 91 91 91 89 86 81 77 77 78 78 81 82 86 91 86 79 74 69 68
91 96 100 99 99 99 93 100 97 86 98 100 95 90 80 90 98 98 90 88 83 91 92 98 98 96 89 89 85 81 78 78 78 77 80 83 83 80 77 79 75 69 66 63

GFSNW_925_rhum_021.txt.gz
RH
79 82 70 69 78 93 94 98 100 86 91 99 100 96 74 78 88 75 78 71 69 75 78 82 73 84 73 70 77 88 74 90 98 85 59 63 65 70 73 95 78 85 87 62
79 77 67 72 81 96 99 98 94 99 75 99 100 83 84 83 88 82 77 82 69 69 80 90 83 80 65 76 77 85 76 98 98 83 84 69 93 80 77 92 88 94 91 57
82 73 68 73 84 96 100 97 100 99 95 94 92 81 87 91 72 76 71 76 73 81 84 71 82 84 65 73 72 66 65 92 89 72 66 93 99 96 95 98 96 75 78 60
83 72 72 74 88 97 100 98 98 92 100 99 77 65 71 92 90 79 73 85 79 80 94 87 87 81 71 76 71 74 80 100 96 89 78 81 98 96 99 98 84 90 58 56
77 75 72 75 86 98 92 99 98 92 95 86 70 76 76 79 91 78 89 87 79 82 94 92 84 80 78 72 77 86 82 97 100 96 85 97 98 95 96 96 88 79 68 63
78 78 71 78 83 97 95 90 89 100 85 88 84 87 88 79 75 81 71 75 76 85 76 76 78 73 67 73 76 84 96 100 100 91 76 95 99 98 96 95 87 79 88 63
78 80 72 80 80 96 99 92 98 100 95 82 78 76 75 81 77 82 79 77 84 76 71 82 81 78 80 84 83 72 85 100 100 97 98 98 89 81 81 90 74 69 66 58
76 81 77 80 79 94 97 99 98 99 94 82 75 77 70 73 71 86 80 76 69 67 78 88 95 92 94 89 94 92 79 86 100 100 98 84 75 81 86 91 90 64 69 64
80 81 79 79 78 91 94 98 100 99 93 91 66 82 84 92 90 93 89 89 83 74 89 95 100 88 86 82 80 91 86 82 98 99 98 97 63 67 77 73 79 68 61 60
81 82 80 78 78 91 95 98 100 100 100 81 69 70 80 81 87 93 95 96 98 87 95 100 100 93 82 94 91 95 98 98 98 96 98 79 62 65 75 72 60 64 68 64
81 81 81 76 81 92 94 94 100 99 99 83 70 70 86 86 86 92 96 94 95 99 100 99 97 97 93 94 83 82 85 90 96 84 89 85 56 74 64 53 62 64 72 78
81 84 80 76 84 88 92 94 91 95 99 92 84 74 68 64 67 87 97 91 87 87 98 96 94 96 92 91 90 85 93 78 82 80 76 58 59 59 57 65 70 65 67 75
81 77 75 76 81 87 90 96 90 91 99 88 89 84 75 67 64 63 91 94 80 91 90 99 95 98 91 96 96 82 80 80 86 76 62 72 68 61 65 78 76 82 80 79
71 71 73 76 77 82 84 93 94 98 98 99 85 84 84 84 75 71 72 84 91 92 97 97 96 96 81 89 82 85 78 81 79 81 72 70 65 61 72 80 82 82 78 74
74 75 74 75 75 79 82 72 90 96 99 95 93 87 93 93 88 89 88 89 95 98 98 98 95 94 83 90 87 91 87 79 81 74 63 64 62 71 76 78 80 77 72 72
74 79 79 80 80 83 85 97 100 99 100 100 99 91 93 99 95 97 97 96 97 98 96 91 89 81 78 93 93 67 72 74 69 65 63 73 77 75 71 79 79 74 70 64
75 76 81 81 83 86 90 95 94 77 95 100 99 98 90 95 93 94 95 97 98 98 94 98 97 97 91 96 98 68 66 66 68 64 70 69 71 72 75 76 75 71 68 64
78 80 86 97 96 93 95 71 93 98 99 99 100 98 92 92 98 98 96 99 99 99 95 96 98 96 97 99 86 75 64 60 66 74 67 70 79 80 84 76 71 73 71 67
81 87 88 92 86 98 93 97 99 97 100 100 99 95 87 92 95 96 99 98 99 97 99 97 97 95 99 86 79 72 79 71 69 84 85 83 82 84 83 78 73 70 75 72
80 80 90 96 94 79 95 99 100 100 100 99 99 94 94 96 96 98 98 97 99 100 96 94 99 98 82 79 77 72 71 77 82 85 95 94 92 88 79 71 66 67 71 75
82 92 93 88 86 93 98 100 98 100 99 99 91 93 92 92 98 96 95 99 99 100 91 97 94 96 88 80 85 84 80 82 76 63 71 70 71 74 76 81 81 79 76 77
96 99 93 98 97 100 100 100 100 100 93 95 98 95 90 94 92 94 94 96 97 96 91 98 96 89 78 81 85 82 82 79 70 68 75 74 72 70 74 78 81 79 77 72
88 96 99 98 100 98 99 98 96 100 100 100 99 99 89 90 90 94 92 94 93 89 98 96 92 84 79 83 90 87 82 75 77 80 79 76 77 73 73 78 74 72 70 68
90 96 94 98 98 98 99 99 99 98 100 99 98 96 95 89 93 94 96 91 91 95 99 94 89 75 74 89 91 87 86 80 81 81 78 78 78 80 74 71 68 68 69 68
91 92 97 99 99 98 100 100 99 99 98 100 96 96 83 94 92 89 94 97 94 91 94 89 91 84 95 92 91 90 87 84 82 79 81 83 79 77 78 72 68 69 68 65
88 94 95 91 97 96 96 97 92 96 98 99 98 96 94 89 92 98 99 98 95 82 92 93 96 87 90 91 89 87 84 82 82 81 81 82 79 78 80 75 72 68 64 62
91 87 97 96 95 99 99 94 87 92 99 100 100 99 87 92 98 97 92 89 84 93 93 97 97 98 88 90 87 85 84 84 85 84 84 89 85 76 72 74 74 68 65 62

GFSNW_925_rhum_027.txt.gz
RH
75 79 77 75 86 98 96 92 100 97 94 98 100 99 94 52 57 51 49 44 48 54 52 56 55 51 45 39 42 59 50 57 78 64 39 37 39 59 58 90 68 76 81 64
74 80 78 78 86 98 100 96 97 90 99 99 100 90 83 61 59 55 51 54 46 44 50 57 48 46 46 42 48 51 51 78 81 73 56 43 55 50 47 66 77 93 90 59
74 78 81 83 87 98 96 93 100 95 88 77 69 90 89 75 58 57 50 53 44 48 50 49 52 56 54 47 46 62 48 60 79 68 62 68 99 74 64 94 97 72 65 55
74 80 83 84 85 84 88 97 98 92 97 76 59 69 77 72 62 55 51 58 52 51 57 55 58 52 55 55 54 54 54 100 87 72 63 65 77 76 74 94 95 98 70 63
77 82 84 82 88 80 89 98 99 94 72 58 53 61 72 57 62 51 58 56 55 53 57 57 66 54 52 53 56 59 61 92 90 87 56 59 84 64 77 95 95 96 95 94
81 83 84 81 86 91 90 90 92 97 73 54 50 53 53 57 50 61 55 52 54 58 58 59 52 57 59 54 61 65 76 99 99 83 63 75 85 95 96 96 91 89 91 66
81 81 83 83 85 94 95 92 97 97 73 57 48 51 49 52 52 61 58 53 56 67 56 60 64 64 64 71 71 54 66 88 97 99 83 86 61 56 69 90 86 54 58 62
78 79 86 83 83 91 95 99 99 96 89 50 50 52 49 47 53 57 59 64 64 68 69 85 66 73 76 69 72 68 62 71 98 97 73 56 56 54 63 91 87 54 77 73
84 85 87 82 80 88 90 97 93 97 100 60 47 49 49 59 58 62 60 63 64 64 78 80 82 84 55 65 81 73 74 72 96 90 94 81 50 47 50 60 73 53 65 66
73 75 77 78 79 83 87 92 90 99 98 70 57 52 57 49 54 66 71 87 85 73 85 89 74 71 55 63 59 77 90 96 99 96 98 62 38 44 62 74 60 55 74 75
76 74 73 73 76 80 82 87 91 96 97 82 60 50 56 61 59 64 83 84 92 97 95 77 71 81 61 62 48 58 68 82 87 94 96 81 43 43 58 53 50 49 50 68
77 76 74 73 76 74 79 81 83 88 98 90 86 75 68 66 61 67 70 84 78 69 78 74 80 88 62 57 60 52 63 47 60 55 50 38 40 46 44 49 54 50 54 58
80 77 75 68 77 78 82 78 87 89 97 89 82 68 77 72 69 66 77 83 73 73 62 81 85 92 77 70 58 55 50 45 57 58 43 41 41 41 47 52 56 57 54 57
76 74 76 74 77 78 87 79 83 90 94 96 77 78 70 83 78 74 74 74 71 81 86 92 90 87 67 67 66 64 50 58 56 55 45 41 48 51 51 55 54 56 55 52
73 80 80 80 78 85 81 78 86 90 94 97 79 71 82 86 82 78 80 85 89 94 96 96 94 80 74 66 69 67 47 52 55 47 46 48 47 51 52 55 56 54 55 56
80 83 82 79 84 88 80 92 98 100 100 98 94 81 78 83 82 84 84 87 92 94 96 94 85 60 76 95 92 48 41 40 38 42 47 49 51 52 51 55 54 51 53 53
82 81 83 84 88 91 76 91 100 92 96 97 94 86 82 86 83 84 81 81 94 96 94 94 85 77 90 82 74 43 38 41 41 42 47 51 53 52 53 53 53 51 48 48
84 84 91 97 97 95 84 79 74 90 99 97 99 87 79 81 80 89 83 91 95 97 94 90 94 86 84 88 61 52 48 44 45 47 46 49 49 53 57 54 52 54 51 48
85 79 85 92 76 72 93 93 98 98 100 98 96 94 96 82 81 88 96 97 100 93 98 94 96 90 96 73 67 58 56 60 55 56 58 57 58 63 63 59 55 53 51 47
68 85 79 80 84 86 89 99 99 100 99 100 99 72 78 80 77 90 88 98 98 100 96 95 100 89 64 58 55 58 59 57 62 74 90 99 100 85 67 59 52 50 48 46
86 78 86 87 94 99 94 99 100 96 100 90 80 76 73 80 85 81 84 95 97 100 91 93 92 80 63 60 58 57 62 63 60 56 55 62 60 64 62 64 58 49 46 44
88 97 98 99 98 99 100 100 100 99 94 91 91 85 77 76 82 87 88 100 96 99 76 88 94 66 66 62 59 67 68 65 62 56 53 54 54 55 61 59 53 48 45 45
96 92 99 100 94 99 100 100 100 100 99 100 99 99 87 80 84 90 92 100 96 77 94 86 74 71 53 58 70 71 66 64 61 63 60 60 61 62 59 56 52 49 46 46
87 93 96 96 94 87 87 89 100 100 100 98 98 98 93 84 95 87 97 81 82 88 96 90 61 68 64 65 72 74 69 66 65 68 66 64 63 61 58 55 52 48 48 47
88 93 94 89 89 97 99 100 99 100 96 99 99 98 85 99 99 86 96 94 94 82 82 83 81 75 72 72 74 73 67 66 67 65 66 64 62 60 59 55 51 52 52 49
90 92 95 84 97 94 94 97 96 91 90 99 100 100 100 100 95 97 97 95 92 92 93 84 75 75 74 72 74 72 68 64 65 65 65 64 62 60 58 57 55 53 50 51
82 87 83 87 89 89 87 72 65 74 93 100 100 100 95 96 98 97 87 93 93 91 87 79 76 83 80 80 78 75 72 67 67 67 65 62 62 61 58 59 58 55 54 54